Wind_Speed
20 19 18 17 16 16 15 15 14 14 13 13 12 11 11 11 10 10 9 8 8 8 7 7 7 6 6 6 6 6 6 6 6 6 6 7 7 7 7 7 7 7 8
21 20 20 19 18 17 16 16 16 16 15 14 13 13 12 12 12 11 10 10 9 9 9 8 8 8 8 7 8 8 8 8 8 8 8 8 8 8 9 9 8 8 9
23 22 21 20 19 18 18 17 17 17 16 16 15 14 14 14 13 13 12 11 11 11 10 10 10 10 10 9 9 9 10 10 10 9 10 10 10 10 10 10 10 10 10
25 24 23 22 21 20 19 19 18 18 18 17 16 16 15 15 15 14 14 13 13 13 12 12 11 11 11 11 11 11 11 11 11 11 11 11 11 11 11 11 11 12 12
26 25 24 23 22 21 21 20 20 19 19 19 18 17 17 16 16 16 15 15 14 14 14 14 14 13 13 13 13 13 13 13 13 13 13 13 13 12 12 12 13 13 14
27 26 25 25 24 23 22 22 21 20 20 20 19 19 19 18 17 17 16 16 16 15 15 15 15 15 15 15 15 15 15 15 15 15 15 14 14 14 14 14 15 15 16
26 26 26 26 26 25 24 23 23 22 21 21 21 20 20 19 19 18 18 17 17 16 16 16 16 17 17 17 16 17 17 17 17 17 17 17 16 16 16 17 17 17 18
27 27 26 26 27 27 26 25 25 24 22 22 22 21 21 21 20 20 19 19 18 18 18 18 18 18 18 18 18 18 18 18 18 18 19 19 19 19 19 19 19 19 19
28 28 27 27 27 27 28 27 27 26 25 23 23 23 22 21 21 21 21 20 19 19 19 19 19 19 19 19 20 19 19 19 19 20 20 20 21 21 21 20 21 21 21
28 28 29 29 29 28 28 28 27 27 26 25 24 24 23 23 22 22 22 21 21 21 21 21 21 21 21 21 21 21 21 21 21 21 22 22 22 23 23 23 23 23 23
29 28 29 30 30 30 29 28 28 28 27 26 25 24 24 24 23 23 23 23 22 22 23 23 23 23 24 24 24 24 24 24 24 24 24 24 24 25 25 25 25 25 25
28 28 29 30 31 31 30 29 29 28 27 27 26 25 25 25 24 23 23 24 24 24 25 25 25 26 26 26 26 27 27 27 26 26 27 27 27 27 27 26 26 26 26
28 28 29 30 31 31 30 30 30 29 29 28 27 27 27 27 26 25 25 25 25 25 26 26 27 27 27 28 28 29 29 29 29 29 29 29 29 28 28 28 27 27 27
28 30 30 31 31 31 31 31 32 31 29 29 29 29 28 28 28 27 27 27 27 27 27 27 28 29 29 29 30 30 30 30 31 31 30 30 30 29 29 29 29 29 28
27 28 31 31 32 32 32 33 32 32 31 30 30 30 30 29 29 29 28 28 28 28 28 28 29 29 30 30 31 31 31 31 31 31 30 31 31 31 30 30 30 30 30
28 28 30 31 32 32 33 34 33 32 32 31 31 31 30 30 30 30 30 29 29 29 29 30 30 30 31 31 31 32 32 33 33 33 32 32 32 32 31 31 31 30 30
28 28 29 30 31 32 33 34 34 33 32 32 32 31 30 30 31 31 30 30 29 29 30 30 30 31 32 32 32 33 33 33 33 33 32 32 32 33 32 32 32 32 31
27 28 28 29 31 31 32 32 34 33 32 32 32 32 32 31 31 31 31 30 29 29 30 30 31 32 32 33 33 33 34 33 33 33 33 33 33 34 34 33 33 32 32
25 26 27 28 30 31 31 31 33 33 33 33 33 33 33 32 32 32 31 31 31 30 31 32 32 32 33 34 34 34 34 34 33 33 34 33 33 34 35 34 34 34 34
23 25 26 27 28 31 32 31 33 34 34 34 34 33 33 32 32 31 31 30 31 31 31 31 32 33 33 34 34 33 34 34 34 33 34 35 35 35 35 36 36 35 35
23 25 27 26 28 29 29 30 32 33 32 32 34 33 33 32 31 30 30 30 31 31 31 31 31 32 32 32 32 33 34 34 34 34 35 35 36 36 36 37 37 37 37
22 23 26 27 29 29 30 30 32 33 33 32 33 32 32 32 32 32 32 31 30 30 31 30 30 30 30 30 31 32 32 33 34 35 35 35 36 37 38 38 38 39 39
22 23 25 28 28 27 26 28 29 31 33 33 32 32 32 32 32 31 32 32 31 31 31 30 29 29 29 29 29 31 32 32 33 33 35 36 37 38 39 40 40 39 39
23 25 25 27 27 26 26 26 28 30 31 31 31 32 32 33 32 32 31 31 30 30 30 30 30 31 30 30 29 30 32 32 33 33 34 35 36 37 39 41 41 41 41
25 25 26 26 27 27 26 27 28 30 31 31 31 31 32 33 32 32 32 32 31 31 30 30 30 30 31 30 30 31 32 33 33 34 33 34 36 37 38 39 40 41 42
27 26 26 27 27 27 27 26 28 30 31 32 31 30 31 33 32 33 33 33 33 33 33 32 31 31 31 31 31 32 32 33 34 34 34 35 35 36 37 38 39 40 40
Wind_Direction
227 224 223 223 223 223 225 227 225 223 222 219 217 217 217 217 217 218 218 218 217 219 224 226 227 230 234 240 246 251 254 256 263 270 276 282 287 291 295 298 299 301 305
228 226 225 224 223 224 226 228 231 228 227 225 223 223 223 223 224 224 224 224 224 226 229 231 234 237 241 246 251 254 257 262 266 270 274 279 283 286 289 291 293 296 298
228 226 225 225 226 226 228 230 233 230 230 229 228 227 227 227 228 228 227 228 228 230 232 235 239 242 245 249 254 256 259 263 267 270 273 275 278 282 285 286 288 292 296
228 226 226 227 228 229 230 232 233 231 231 232 231 230 229 230 231 231 231 232 232 233 235 238 243 246 248 251 255 258 260 263 266 269 272 274 276 278 280 283 285 288 292
228 227 226 227 228 229 230 230 230 230 232 233 232 232 232 233 234 235 235 236 235 236 237 241 245 248 249 252 255 258 260 262 264 269 272 273 274 275 278 281 284 288 291
229 227 226 228 229 229 230 229 229 230 232 233 233 234 233 235 236 236 237 239 239 240 242 244 246 249 252 254 256 259 261 263 265 268 270 271 272 274 276 279 282 286 289
229 228 228 228 228 229 230 228 230 230 232 234 234 235 235 235 236 237 238 240 243 245 247 248 249 251 253 256 258 260 262 264 266 267 268 269 272 274 276 278 281 283 286
229 228 228 228 229 230 230 230 231 230 231 232 234 236 236 235 236 238 239 241 244 246 249 251 251 253 255 257 259 261 263 264 266 267 268 270 272 274 276 279 281 282 284
228 228 229 228 229 231 232 232 231 231 232 233 234 237 237 237 238 239 239 241 243 246 249 251 252 254 256 258 260 262 264 265 266 267 268 269 271 273 276 278 281 282 283
226 227 229 229 230 231 232 232 231 232 233 236 237 237 238 238 239 239 240 241 244 247 250 252 254 255 257 259 260 262 264 265 266 268 269 269 271 274 276 278 280 281 282
226 226 228 229 230 231 232 233 232 233 233 236 239 239 239 240 239 240 242 244 247 249 251 253 255 256 258 259 261 263 264 266 267 268 269 269 270 272 275 277 278 280 281
226 227 230 228 229 231 232 233 233 233 233 235 238 239 241 242 242 242 243 246 249 250 252 254 256 257 258 260 262 264 264 266 267 269 269 268 269 271 273 274 276 278 279
226 228 231 228 230 232 232 232 233 234 235 235 237 240 242 243 243 243 245 248 250 252 253 254 257 258 259 261 263 264 265 266 268 269 269 267 268 270 271 272 274 275 277
227 228 230 231 230 231 232 232 234 235 235 236 237 240 242 244 244 245 247 250 252 253 255 257 258 259 260 261 263 264 265 266 268 270 269 268 267 269 270 271 272 274 276
229 231 230 229 229 230 233 235 235 236 236 239 239 240 242 244 245 247 249 252 254 256 258 260 261 262 262 263 264 265 265 266 268 269 269 268 267 267 269 270 271 272 274
229 231 230 231 230 230 233 236 237 236 237 239 241 242 242 243 245 248 250 253 256 258 260 262 264 264 263 264 265 265 266 267 268 269 268 268 267 267 270 270 271 271 272
228 229 230 232 231 230 234 236 238 238 239 240 243 243 243 243 245 248 250 252 255 258 261 263 265 266 265 264 264 265 266 267 267 268 268 268 267 268 270 270 270 272 271
228 229 230 231 229 230 233 236 239 239 241 243 244 245 245 245 246 247 249 250 253 257 261 264 266 266 266 266 265 265 265 265 266 266 267 267 267 268 269 270 271 272 272
230 229 231 233 231 231 233 239 240 239 241 242 243 244 246 247 248 249 251 252 255 258 261 264 266 266 266 266 266 266 265 265 266 266 267 267 268 269 269 268 270 272 273
231 232 234 237 235 235 236 240 241 240 241 241 241 244 246 248 249 250 252 255 257 260 263 266 266 266 266 266 265 265 265 265 267 268 268 267 268 268 269 269 270 272 272
237 238 238 239 237 238 239 240 240 239 240 241 241 243 245 247 249 251 253 256 258 261 263 266 268 268 267 266 265 265 265 266 267 268 269 268 267 268 269 269 269 270 271
240 241 241 242 242 241 243 242 238 238 241 242 241 242 242 245 248 252 254 258 261 262 263 265 269 270 270 269 268 267 267 267 267 269 269 269 269 269 269 269 269 269 270
250 250 248 247 245 243 242 240 239 239 241 241 241 243 243 245 249 252 254 258 261 264 264 265 267 269 272 272 271 271 270 269 270 270 271 271 271 271 270 270 270 270 270
253 250 247 246 246 247 247 246 246 244 243 242 243 245 245 247 249 251 254 257 260 263 264 265 267 269 271 271 271 272 272 272 272 273 273 273 274 273 271 270 269 269 270
255 253 248 248 250 252 253 250 250 249 250 246 246 246 247 248 250 253 256 258 262 264 265 266 268 268 269 270 272 273 272 272 272 273 273 273 274 273 272 271 270 270 270
256 255 254 254 253 254 254 251 250 250 250 250 249 248 250 251 253 255 257 260 262 263 264 265 267 268 269 270 272 272 272 272 272 273 275 276 275 275 273 273 272 271 272
Height
5849 5850 5852 5853 5855 5856 5857 5859 5860 5861 5862 5863 5864 5865 5866 5866 5867 5868 5869 5869 5870 5871 5871 5872 5872 5873 5873 5874 5874 5874 5874 5874 5874 5874 5874 5874 5874 5873 5873 5872 5872 5872 5871
5845 5847 5848 5850 5852 5853 5854 5856 5857 5858 5860 5861 5862 5863 5864 5864 5865 5866 5867 5868 5868 5869 5869 5870 5871 5871 5872 5872 5872 5872 5873 5873 5873 5873 5872 5872 5872 5872 5871 5871 5871 5870 5869
5840 5842 5844 5846 5848 5850 5851 5853 5854 5855 5857 5858 5859 5860 5861 5862 5863 5864 5865 5865 5866 5867 5867 5868 5869 5869 5870 5870 5870 5870 5871 5871 5871 5871 5870 5870 5870 5870 5869 5869 5869 5868 5868
5835 5838 5840 5842 5844 5846 5848 5849 5851 5852 5854 5855 5856 5857 5858 5859 5860 5861 5862 5863 5864 5864 5865 5866 5866 5867 5867 5868 5868 5868 5868 5868 5868 5868 5868 5868 5868 5868 5867 5867 5867 5866 5865
5830 5833 5835 5838 5840 5842 5843 5845 5847 5848 5850 5852 5853 5854 5855 5856 5857 5858 5859 5860 5861 5862 5862 5863 5863 5864 5864 5865 5865 5865 5866 5866 5866 5866 5866 5865 5865 5865 5865 5864 5864 5864 5863
5825 5827 5830 5832 5835 5837 5839 5841 5842 5844 5846 5848 5849 5850 5852 5853 5854 5855 5856 5857 5858 5859 5859 5860 5860 5861 5861 5862 5862 5862 5863 5863 5863 5863 5863 5862 5862 5862 5862 5862 5861 5861 5860
5819 5822 5824 5827 5830 5832 5834 5836 5838 5839 5841 5843 5845 5846 5848 5849 5850 5851 5852 5853 5854 5855 5856 5856 5857 5857 5858 5858 5859 5859 5859 5859 5859 5859 5859 5859 5859 5859 5859 5858 5858 5857 5857
5813 5815 5818 5821 5824 5827 5829 5831 5833 5834 5836 5838 5840 5842 5843 5845 5846 5847 5848 5849 5850 5851 5852 5853 5853 5854 5854 5855 5855 5855 5855 5855 5855 5855 5855 5855 5855 5855 5855 5855 5854 5854 5853
5806 5810 5813 5816 5818 5821 5824 5826 5828 5829 5831 5833 5836 5837 5839 5840 5842 5843 5844 5845 5846 5847 5848 5849 5849 5850 5850 5850 5851 5851 5851 5851 5851 5851 5851 5851 5851 5851 5851 5851 5850 5850 5849
5800 5804 5807 5810 5813 5815 5818 5820 5823 5825 5826 5828 5831 5833 5834 5835 5837 5838 5839 5841 5842 5843 5843 5844 5845 5845 5846 5846 5846 5847 5847 5847 5847 5847 5847 5847 5847 5847 5846 5846 5846 5845 5845
5794 5798 5801 5804 5807 5810 5812 5815 5817 5819 5821 5823 5825 5827 5829 5830 5832 5833 5834 5836 5837 5838 5838 5839 5840 5840 5841 5841 5841 5842 5842 5842 5842 5842 5842 5842 5842 5842 5841 5841 5841 5840 5840
5789 5792 5795 5798 5801 5804 5806 5809 5811 5813 5815 5818 5820 5822 5823 5825 5826 5828 5829 5830 5831 5832 5833 5834 5834 5835 5835 5836 5836 5836 5836 5836 5836 5836 5836 5836 5836 5836 5836 5836 5835 5835 5835
5783 5786 5789 5791 5795 5798 5801 5803 5806 5808 5810 5812 5814 5816 5818 5819 5821 5822 5824 5825 5826 5826 5827 5828 5828 5829 5829 5830 5830 5830 5830 5830 5830 5830 5830 5830 5831 5830 5830 5830 5830 5830 5829
5777 5780 5782 5785 5788 5792 5795 5797 5799 5801 5804 5806 5808 5810 5812 5813 5815 5817 5818 5819 5820 5820 5821 5821 5822 5823 5823 5823 5823 5824 5824 5824 5824 5824 5824 5824 5824 5824 5824 5824 5824 5824 5824
5772 5774 5777 5779 5782 5786 5788 5790 5792 5795 5798 5800 5802 5804 5806 5807 5809 5811 5812 5813 5814 5814 5815 5815 5816 5816 5816 5817 5817 5817 5817 5817 5817 5817 5817 5817 5818 5818 5818 5818 5818 5818 5818
5766 5769 5771 5774 5776 5779 5781 5784 5785 5787 5791 5793 5795 5798 5799 5801 5803 5805 5806 5807 5808 5808 5809 5809 5809 5809 5809 5810 5810 5810 5810 5810 5810 5810 5810 5810 5811 5811 5811 5811 5811 5811 5811
5760 5763 5766 5768 5770 5773 5774 5776 5778 5781 5784 5787 5789 5791 5793 5795 5797 5798 5800 5801 5801 5802 5802 5802 5802 5802 5802 5802 5802 5803 5803 5803 5803 5803 5803 5803 5804 5804 5804 5804 5804 5804 5804
5755 5757 5759 5762 5764 5766 5768 5769 5771 5774 5777 5780 5782 5784 5786 5788 5790 5792 5793 5794 5795 5795 5796 5796 5796 5795 5795 5795 5795 5795 5795 5795 5795 5796 5796 5796 5797 5797 5797 5797 5798 5797 5797
5751 5752 5754 5756 5758 5760 5762 5763 5765 5767 5771 5773 5776 5778 5780 5782 5783 5785 5787 5787 5788 5789 5789 5789 5789 5788 5788 5787 5787 5787 5787 5787 5788 5788 5788 5789 5789 5789 5789 5790 5790 5790 5790
5746 5748 5750 5751 5752 5754 5756 5758 5759 5762 5764 5766 5768 5771 5773 5775 5777 5778 5780 5781 5781 5782 5782 5781 5781 5780 5780 5779 5779 5779 5779 5779 5780 5780 5780 5781 5781 5781 5782 5782 5782 5782 5782
5742 5743 5745 5746 5747 5748 5749 5751 5753 5755 5757 5759 5761 5764 5767 5769 5770 5771 5773 5774 5774 5775 5774 5774 5774 5773 5772 5772 5771 5772 5772 5772 5772 5772 5772 5772 5773 5773 5773 5773 5773 5774 5774
5738 5739 5740 5741 5742 5743 5743 5744 5747 5749 5750 5752 5755 5757 5760 5762 5763 5765 5766 5767 5767 5767 5767 5767 5767 5766 5765 5765 5764 5764 5764 5765 5764 5764 5764 5764 5764 5764 5764 5764 5764 5765 5765
5733 5734 5735 5736 5738 5738 5738 5739 5741 5742 5744 5746 5748 5751 5753 5755 5756 5758 5759 5760 5760 5760 5760 5760 5760 5760 5759 5758 5757 5757 5757 5757 5757 5757 5756 5756 5756 5755 5755 5755 5755 5756 5756
5729 5729 5730 5731 5733 5733 5733 5734 5735 5737 5738 5740 5742 5744 5746 5748 5749 5751 5752 5753 5753 5753 5753 5753 5753 5753 5752 5751 5750 5750 5749 5749 5749 5749 5749 5748 5747 5746 5745 5745 5746 5746 5747
5724 5724 5724 5726 5727 5728 5728 5729 5730 5731 5732 5734 5736 5738 5739 5741 5742 5743 5744 5745 5745 5746 5746 5746 5745 5745 5745 5744 5743 5743 5742 5741 5741 5741 5741 5740 5739 5737 5736 5736 5736 5737 5737
5718 5718 5718 5719 5720 5721 5722 5723 5724 5725 5726 5728 5729 5730 5732 5734 5735 5736 5737 5737 5738 5738 5738 5738 5738 5738 5737 5736 5736 5735 5734 5734 5733 5733 5732 5732 5730 5729 5728 5728 5728 5728 5728